Location: *
(46.1006°N, 1.8394°E)
Time: 09:54:00
(UTC+00:00)

YAOGAN 1 - Pass Details

Date: 20 September 2019
Orbit: 619 x 621 km, 98.0° (Epoch: 15 October)

Event Time Altitude Azimuth Distance (km) Brightness Sun altitude
Rises 18:22:28 0° 170° (S) 2,884 5.8 -5.6°
Reaches altitude 10° 18:24:39 10° 172° (S) 1,983 5.0 -6.0°
Maximum altitude 18:28:58 73° 258° (WSW) 654 2.9 -6.7°
Drops below altitude 10° 18:33:18 10° 343° (NNW) 1,998 5.5 -7.4°
Sets 18:35:31 0° 345° (NNW) 2,909 6.4 -7.8°
